Regional Weather Roundup
Issued by NWS Northern Indiana

Home | Current Version | Previous Version | Text Only | Print | Product List | Glossary On
Versions: 1 2 3 4 5 6 7 8 9 10 11 12 13 14 15 16 17 18 19 20 21 22 23 24 25 26 27 28 29 30 31 32 33 34 35 36 37 38 39 40 41 42 43 44 45 46 47 48 49 50
586
ASUS43 KIWX 010410
RWRIWX

KIWX WEATHER ROUNDUP
NATIONAL WEATHER SERVICE NORTHERN INDIANA
1200 AM EDT WED JUN 01 2016

NOTE: "FAIR" INDICATES FEW OR NO CLOUDS BELOW 12,000 FEET WITH NO
SIGNIFICANT WEATHER AND/OR OBSTRUCTIONS TO VISIBILITY.

* THESE STATIONS ARE NOT UNDER NWS QUALITY CONTROL. THEY ALSO MAY NOT
  REPORT WEATHER SUCH AS PRECIPITATION OR FOG.

INZ001>027-010500-
NORTHERN INDIANA

CITY           SKY/WX    TMP DP  RH WIND       PRES   REMARKS
GARY*          PTCLDY    67  65  94 E5        29.98S
MICHIGAN CITY* PTCLDY    63  63 100 CALM      29.98F
LAPORTE*       CLOUDY    66  66 100 E9        29.99F
KNOX*          CLOUDY    64  59  82 E10       29.98S
SOUTH BEND     CLOUDY    65  61  87 E5        30.01F
GOSHEN         CLOUDY    68  58  70 E5        30.02S
MONTICELLO*    MOCLDY    69  56  61 E5        29.97S
LOGANSPORT*    CLOUDY    68  61  77 E7        29.99S
ROCHESTER*     CLOUDY    70  64  83 NE5       30.00F
WARSAW*        CLOUDY    68  59  73 E5        30.02S
ANGOLA*          N/A     70  61  73 SE5       30.04R
FORT WAYNE     PTCLDY    68  48  48 NE3       30.02R
HUNTINGTON*    MOCLDY   N/A N/A N/A E3        30.01S
PERU/GRISSOM   CLOUDY    68  60  76 E7        29.98R
MARION*        CLOUDY    70  57  63 NE7       30.00S

$$
INZ028>050-010500-
CENTRAL INDIANA

CITY           SKY/WX    TMP DP  RH WIND       PRES   REMARKS
LAFAYETTE      PTCLDY    68  59  73 E7        29.96S
KOKOMO*        PTCLDY    68  57  68 E10       29.99S
MUNCIE*        CLOUDY    75  54  47 E9        30.01R
INDIANAPOLIS   PTCLDY    73  59  61 NE9       29.97R

$$
MIZ043>046-050>051-056>058-064>065-071>073-077>080-010500-
SOUTHWEST LOWER MICHIGAN

CITY           SKY/WX    TMP DP  RH WIND       PRES   REMARKS
BATTLE CREEK   PTCLDY    70  48  45 SE7       30.04R
BENTON HARBOR  CLOUDY    66  54  65 E7        29.99S
COLDWATER*     PTCLDY    67  49  53 CALM      30.04R
HILLSDALE*     CLEAR     65  46  51 SE3       30.05R
HOLLAND        CLOUDY    67  52  58 E7        30.01R
GRAND RAPIDS   CLOUDY    70  54  56 E6        30.02S
KALAMAZOO      CLOUDY    68  55  63 CALM      30.03R
STURGIS*       CLOUDY    70  50  48 SE6       30.03R
THREE RIVERS*  FAIR      68  57  68 CALM      30.04R

$$
OHZ001>008-015>018-024>025-010500-
NORTHWEST OHIO

CITY           SKY/WX    TMP DP  RH WIND       PRES   REMARKS
WAUSEON*         N/A     64  63  94 CALM      30.04R
DEFIANCE       CLEAR     67  48  50 E7        30.02S
FINDLAY        PTCLDY    70  45  40 E12       30.01S
TOLEDO EXPRESS PTCLDY    65  50  58 E3        30.02S
TOLEDO METCALF MOCLDY    65  52  62 E6        30.04R
LIMA           CLOUDY    70  47  43 E13       30.01S

$$
AND FOR LAKE MICHIGAN COASTAL AND OPEN LAKE BUOY OBSERVATIONS

STATION/POSITION TEMP    WIND        PRES    VSBY  WAVE
                 AIR SEA DIR/SP/G                  HT/PER
                 (F)     (DEG/KT/KT) (MB)    (MI)  (FT/S)
CALUMET HARBOR                       1014.6R
MICHIGAN CITY     64      70/ 10/ 13   N/A
BURNS HARBOR      63      70/  8/ 12 1015.6S
SAINT JOSEPH      66      10/  3/  6 1015.6F
SOUTH LAKE BUOY   58 54   90/ 10/ 12 1014.4R         1/ 4
4 MI NW BRIDGMAN  65 64   80/  8/ 12   N/A           2
MICHIGAN CITY     63 62   80/  8/ 10   N/A           1/ 3

$$
&&




USA.gov is the U.S. government's official web portal to all federal, state and local government web resources and services.